Погода Белый

Погода Белый : погода сейчас, прогноз погоды и архив. Всё, что Вы хотите узнать о погоде Белый!

Поиск расширенной информации на нашем сайте:

Другие новости

Новости СМИ2

Главная страница сайта

Новости сайта

03.07.2017

Напоминаем, что на нашем специализированном сайте Метеоцентр.Азия вы можете получить высокодетализированные автоматические прогнозы погоды по пунктам России, СНГ и мира в авиационном формате (включающие направление и скорость ветра, видимость, явления погоды, количество и форму облачности, нижнюю и верхнюю границу облачности).


Погода Белый - сегодня

Время (UTC), дата Ветер
(°,м/с) 
Видим.   Явления Облачность Т
(°С)
Тd
(°С)
f(%) Тe
(°С)
Pmin
(гПа)
dP
(гПа)
Po
(мм)
O2
(г/м3)
Тmin Tmax R s Состояние
почвы
12 20.10.17 280 (З) 20000 м  {туман}  9/9 600 м 
[Sc]
+7.2 +1.7 68 +7  1022.7  -0.8  747  293           
15 20.10.17 290 (З) 10 км  {ливн. осадки}  ясно 600 м 
+3.8 +1.2 83 +5  1022.4  -0.5  746  296      0.3     
18 20.10.17 310 (СЗ) 10 км  {ливн. осадки}  ясно 
+0.8 -0.4 92 +1  1023.5  0.4  747  300    +8.4  0.3     
21 20.10.17 тихо ()   10 км    ясно 
-1.7 -2.2 96 -2  1023.9  0.1  747  303           
00 21.10.17 250 (З) 10 км    ясно 
-1.8 -2.3 96 -3  1023.2  -0.7  746  303           
03 21.10.17 270 (З) 4000 м  дымка  ясно 
-2.9 -3.3 97 -2  1023.2  -0.1  746  304  -3.9         
06 21.10.17 320 (СЗ) 4000 м  дымка  9/0 средняя 
[Ac trans]
-2.4 -2.8 97 -2  1023.2  0.1  746  304  -3.9        замёрзшая 
09 21.10.17 350 (С) 20000 м  в посл. час туман  8/8 600 м 
[Sc]
+2.9 +2.4 97 +4  1022.4  -0.3  746  297           
12 21.10.17 300 (СЗ) 20000 м  {туман}  8/8 600 м 
[Sc diur, vesp]
+2.6 +0.3 85 +3  1021.2  -1.2  745  297           
15 21.10.17 020 (С) 10 км    9/9 600 м 
[Sc]
+2 -3.5 67 +1  1021.2  -0.2  745  298           
18 21.10.17 020 (С) 10 км    9/9 600 м 
[Sc]
+0.6 -4 71 1021.7  0.4  745  300    +4.6       
21 21.10.17 040 (СВ) 10 км    9/9 600 м 
[Sc]
+0 -5.1 68 +1  1022  0.2  746  301           
00 22.10.17 340 (С) 10 км    ясно 
-1.9 -5.4 77 -1  1022.2  746  303           
03 22.10.17 320 (СЗ) 10 км    ясно 
-3.8 -5.1 91 -3  1022.2  -0.2  745  305  -3.8         
06 22.10.17 260 (З) 20000 м    ясно 
-3 -4.3 91 -3  1022.4  0.3  746  304  -4.9        замёрзшая 
09 22.10.17 300 (СЗ) 20000 м    ясно 
+1.7 -5.5 59 1021.7  -0.2  745  299           
12 22.10.17 280 (З) 20000 м    ясно 
+3.6 -7.2 45 +2  1020.4  -1.1  745  297           
15 22.10.17 270 (З) 10 км    4/0 средняя 
[Ac trans]
+0.1 -6.4 62 -1  1019.9  -0.8  744  300           
18 22.10.17 270 (З) 10 км    9/0 средняя 
[Ac trans]
+0.3 -5.5 65 -1  1019.7  -0.2  744  300    +3.8       
21 22.10.17 270 (З) 10 км    9/0 средняя 
[Ac trans]
-0.2 -5.2 69 -1  1019.4  -0.3  744  300           
00 23.10.17 280 (З) 10 км    9/9 600 м 
[Sc]
-0.2 -4.6 72 -1  1019.6  0.2  744  300           
03 23.10.17 290 (З) 10 км    9/9 600 м 
[Sc]
-0.7 -4 78 1020.1  0.4  744  301  -0.8         
06 23.10.17 360 (С) 20000 м    9/9 600 м 
[Sc]
-0.3 -2.9 83 1021.1  745  301  -1.1        мокрая 
09 23.10.17 070 (В) 20000 м    9/9 600 м 
[Sc]
+0.4 -4.5 70 -1  1022.6  1.5  746  301           
12 23.10.17 010 (С) 20000 м    8/3 600 м средняя 
[Sc|Ac trans]
+2.3 -5.3 57 +1  1023.4  747  299           
Время (UTC), дата Ветер
(°,м/с) 
Видим.   Явления Облачность Т
(°С)
Тd
(°С)
f(%) Тe
(°С)
Pmin
(гПа)
dP
(гПа)
Po
(мм)
O2
(г/м3)
Тmin Tmax R s Состояние
почвы

Для получения пояснительной информации подведите курсор к названию столбца.

ПОГОДА Белый - архив

Всё, что Вы хотите узнать о погоде Белый - удобно и подробно!

Выберите нужную дату (начиная с 1 января 2015* года) и нажмите кнопку "Найти".
Будут отображены архивные сводки погоды по пункту Белый, начиная с указанной даты.


Отображать данные в формате CSV (для использования в таблицах Excel)


Внимание! Наш архив погоды предназначен исключительно для личного некоммерческого использования в познавательных целях. Если Вам необходимы официальные справки о состоянии погоды (для производственных, юридических, коммерческих и т.п. целей), обращайтесь в органы Росгидромета.

*Примечание: данная дата относится к архиву по метеостанциям СССР (Россия, СНГ, Балтия).
Архив по метеостанциям Зарубежной Европы и Азии (кроме Китая) хранится 10 дней, по другим регионам земного шара (Китай, Африка, Америка, Австралия, Океания) - 1 день.

Белый - район местоположения метеостанции


Название, широта, долгота, высота метеостанции:
Белый 55.9°ш. 32.9°д. 222 м над ур. моря [Российская Федерация]

Дополнительная информация

В oтличие oт бoльшинства пoгoдных сайтoв мы публикуем пoдрoбную метеoинфoрмацию в детальнoм прoфессиoнальнoм фoрмате.

Характеристики температуры и влажнoсти вoздуха измеряются на высoте 2 м в тени вдали oт зданий и деревьев.
Скoрoсть ветра измеряется на высoте 10 м (на урoвне рoста челoвека скoрoсть ветра ниже в 1.5-2 раза). Если метеoстанция нахoдится в гoрoде или в лесу, тo скoрoсть ветра занижена на 2-4 м/с пo сравнению с oткрытым местoм. Скoрoсть ветра над акватoриями крупных рек и oзёр, а также на вершинах хoлмoв на 2-5 м/с выше, чем в oбычных услoвиях.
Атмoсфернoе давление в разных тoчках местнoсти мoжет значительнo oтличаться oт давления на метеoстанции, в зависимoсти oт услoвий рельефа (при пoдъёме на 10 м давление пoнижается примернo на 1 мм рт.ст.).